Location: Canyon Rim
(40.8777°N, 111.8641°W)
Time: 09:40:16
(UTC+00:00)

N. Korean satellite - Visible Passes

Search period start: 17 April 2021 00:00
Search period end: 27 April 2021 00:00
Orbit: 452 x 499 km, 97.2° (Epoch: 16 April)

Date Brightness Start Highest point End Pass type
(mag) Time Alt. Az. Time Alt. Az. Time Alt. Az.
17 Apr 9.8 11:49:21 10° ENE 11:50:56 12° E 11:52:31 10° ESE visible
20 Apr 9.5 12:00:52 10° NE 12:03:20 17° E 12:05:46 10° SE visible
24 Apr 9.9 11:47:15 10° ENE 11:48:27 11° E 11:49:38 10° ESE visible
